Regional Weather Roundup
Issued by NWS Jackson, KY

Home | Current Version | Previous Version | Text Only | Print | Product List | Glossary Off
Versions: 1 2 3 4 5 6 7 8 9 10 11 12 13 14 15 16 17 18 19 20 21 22 23 24 25 26 27 28 29 30 31 32 33 34 35 36 37 38 39 40 41 42 43 44 45 46 47 48 49 50

599
ASUS43 KJKL 031110
RWRJKL

EAST KENTUCKY HOURLY WEATHER ROUNDUP
NATIONAL WEATHER SERVICE JACKSON KY
700 AM EDT TUE MAY 03 2016

NOTE: "FAIR" INDICATES FEW OR NO CLOUDS BELOW 12,000 FEET WITH
NO SIGNIFICANT WEATHER AND/OR OBSTRUCTIONS TO VISIBILITY.

* THESE REPORTS ARE NOT UNDER NWS QUALITY CONTROL AND MAY NOT
  REPORT WEATHER SUCH AS PRECIPITATION AND FOG.

KYZ079-080-083-085-087-088-110-112-115-119-120-031200
...EASTERN KENTUCKY...

CITY           SKY/WX    TMP DP  RH WIND       PRES   REMARKS
JACKSON        FOG       55  53  93 CALM      29.89S VSB 3/4
LONDON         CLOUDY    54  53  97 NW7       29.91R
SOMERSET*      CLOUDY    54  52  94 CALM      29.93S
MONTICELLO*    CLOUDY    56  53  90 CALM      29.94S
WILLIAMSBURG*  CLOUDY    55  55 100 N5        29.91S
MIDDLESBORO*   CLOUDY    58  57  97 CALM      29.90R
HARLAN APT*    CLOUDY    55  54  94 CALM      29.89S
HAZARD APT*    CLOUDY    55  55 100 CALM      29.90R
BLACK MTN*       N/A     52  52 100 N2          N/A
PIKE CO APT*   FOG       57  57 100 NW6       29.88R VSB 1/2
BIG SANDY APT* CLOUDY    58  58 100 CALM      29.88R FOG
MOREHEAD APT*  CLOUDY    54  54 100 CALM      29.91R
$$

KYZ035-036-041-042-044-050-067-078-099-031200
...CENTRAL KENTUCKY...

CITY           SKY/WX    TMP DP  RH WIND       PRES   REMARKS
MT STERLING*   CLOUDY    54  52  94 CALM      29.91S
FLEMING/MASON* CLOUDY    54  52  94 CALM      29.90R
DANVILLE*      CLOUDY    54  50  87 NW3       29.93R
RICHMOND*      CLOUDY    54  50  87 W3        29.91R
LEXINGTON      CLOUDY    54  50  86 W3        29.91R
FRANKFORT      CLOUDY    54  49  83 W3        29.90S
LOUISVILLE     CLOUDY    54  48  80 NW6       29.93R
LEBANON*       PTSUNNY   54  50  87 SW6       29.93R
BOWLING GREEN  MOCLDY    54  50  86 NW3       29.95R
$$

KYZ091>093-OHZ055-061-077-WVZ005-015-034-035-042-031200
...SOUTHERN OHIO/WEST VIRGINIA...

CITY           SKY/WX    TMP DP  RH WIND       PRES   REMARKS
COVINGTON      CLOUDY    53  51  93 NW5       29.89S
COLUMBUS       CLOUDY    46  44  93 N6        29.90S
DAYTON         CLOUDY    48  45  89 N8        29.92S
WILMINGTON     CLOUDY    49  47  93 N6        29.89S
HUNTINGTON     CLOUDY    58  55  90 CALM      29.87S
CHARLESTON     CLOUDY    58  56  93 NW6       29.86R FOG
PINEVILLE*     DRIZZLE   58  55  91 MISG      29.92R
BECKLEY        LGT RAIN  55  54  96 NW5       29.88S
$$

VAZ002-007-008-TNZ017-027-036-066-071-031200
...SOUTHWEST VIRGINIA/EAST TENNESSEE...

CITY           SKY/WX    TMP DP  RH WIND       PRES   REMARKS
WISE*          CLOUDY    55  55 100 CALM      29.91R
BRISTOL        CLOUDY    59  57  93 SW3       29.88S
MORRISTOWN*    CLOUDY    59  59 100 CALM      29.88R
SEVIERVILLE*   CLOUDY    59  59 100 CALM      29.88R
KNOXVILLE      CLOUDY    62  59  90 W3        29.88R
OAK RIDGE      CLOUDY    62  59  90 CALM      29.90R
CROSSVILLE     CLOUDY    55  53  93 N7        29.93R FOG
NASHVILLE      MOCLDY    55  49  80 NW3       29.96R
$$

...KEY TO REMARKS...
VSB - VISIBILITY IN MILES
WCI - WIND CHILL INDEX
HX  - HEAT INDEX

$$




USA.gov is the U.S. government's official web portal to all federal, state and local government web resources and services.